Weather History for London, ON

Change the Weather History Date:

Monday, February 11, 2013

  Actual Average Record
Temperature  
Mean Temperature 36 °F -  
Max Temperature 41 °F 28 °F 59 °F (1999)
Min Temperature 32 °F 15 °F -9 °F (2014)
Degree Days  
Heating Degree Days 28    
Moisture  
Dew Point 31 °F    
Average Humidity 83    
Maximum Humidity 100    
Minimum Humidity 63    
Precipitation  
Precipitation 0.00 in - - ()
Sea Level Pressure  
Sea Level Pressure 29.69 in    
Wind  
Wind Speed 15 mph ()    
Max Wind Speed 29 mph    
Max Gust Speed 44 mph    
Visibility 8.6 miles    
Events Rain , Snow    
Averages and records for this station are not official NWS values.
T = Trace of Precipitation, MM = Missing Value Source: Averaged Metar Reports

Daily Weather History Graph

Daily Weather History Graph

Search for Another Location

Airport:

Trip Planner

Search our weather history database for the weather conditions in past years. The results will help you decide how hot, cold, wet, or windy it might be!

Date:

Astronomy

Feb. 11, 2013 Rise Set
Actual Time 7:27 AM EST 5:50 PM EST
Civil Twilight 6:57 AM EST 6:20 PM EST
Nautical Twilight 6:24 AM EST 6:53 PM EST
Astronomical Twilight 5:51 AM EST 7:26 PM EST
Moon 7:47 AM EST (2/11) 7:50 PM EST (2/11)
Length of Visible Light 11h 22m
Length of Day
10h 23m
Waxing Crescent, 3% of the Moon is Illuminated
Feb 11
Waxing Crescent
Feb 17
First Quarter
Feb 25
Full
Mar 4
Last Quarter
Mar 11
New

Hourly Weather History & Observations

Time (EST) Temp. Windchill Dew Point Humidity Pressure Visibility Wind Dir Wind Speed Gust Speed Precip Events Conditions
12:00 AM 35.6 °F 26.2 °F 28.4 °F 75% 29.85 in 10.0 mi SSE 15.0 mph - N/A Rain Light Rain Showers
12:09 AM 35.6 °F 26.6 °F 28.4 °F 75% 29.84 in 4.0 mi SSE 13.8 mph - N/A Rain Light Rain
1:00 AM 35 °F - 31 °F 81% 29.82 in 5 mi SSE 16.1 mph - -   Overcast
1:00 AM 35.6 °F 26.2 °F 32.0 °F 87% 29.81 in 5.0 mi SSE 15.0 mph 21.9 mph N/A Rain Light Rain
2:00 AM 35.6 °F 25.9 °F 32.0 °F 87% 29.78 in 10.0 mi SSE 16.1 mph - N/A Rain Light Rain
3:00 AM 35.6 °F 28.0 °F 33.8 °F 93% 29.75 in 10.0 mi SSE 10.4 mph 17.3 mph N/A Rain Light Rain
3:22 AM 35.6 °F 28.0 °F 33.8 °F 93% 29.74 in 4.0 mi SSE 10.4 mph - N/A Rain Light Rain
4:00 AM 35.6 °F 28.0 °F 33.8 °F 93% 29.72 in 6.0 mi SSE 10.4 mph - N/A Rain Light Rain
4:43 AM 35.6 °F 27.1 °F 33.8 °F 93% 29.70 in 4.0 mi SSE 12.7 mph - N/A Rain Light Rain
5:00 AM 35.6 °F 26.6 °F 33.8 °F 93% 29.70 in 6.0 mi SSE 13.8 mph - N/A Rain Light Rain
6:00 AM 37.4 °F 29.8 °F 33.8 °F 87% 29.67 in 6.0 mi SSE 11.5 mph - N/A   Overcast
7:00 AM 37 °F - 36 °F 96% 29.64 in 6 mi South 11.5 mph - -   Overcast
7:00 AM 37.4 °F 29.3 °F 35.6 °F 93% 29.64 in 6.0 mi South 12.7 mph - N/A   Overcast
8:00 AM 39.2 °F 32.0 °F 39.2 °F 100% 29.62 in 5.0 mi South 11.5 mph 20.7 mph N/A   Overcast
8:31 AM 39.2 °F 31.2 °F 39.2 °F 100% 29.62 in 4.0 mi SSW 13.8 mph - N/A Rain Light Rain
8:35 AM 39.2 °F 31.2 °F 39.2 °F 100% 29.61 in 4.0 mi SSW 13.8 mph 19.6 mph N/A Rain Light Rain Showers
8:49 AM 39.2 °F 30.5 °F 39.2 °F 100% 29.61 in 4.0 mi SSW 16.1 mph 26.5 mph N/A Rain Light Rain Showers
9:00 AM 39.2 °F 30.8 °F 39.2 °F 100% 29.60 in 4.0 mi SSW 15.0 mph 23.0 mph N/A Rain Light Rain Showers
9:37 AM 41.0 °F 32.8 °F 37.4 °F 87% 29.60 in 6.0 mi SSW 16.1 mph 24.2 mph N/A   Overcast
10:00 AM 41.0 °F 33.9 °F 39.2 °F 93% 29.60 in 8.0 mi SSW 12.7 mph 19.6 mph N/A   Overcast
11:00 AM 39.2 °F 27.6 °F 30.2 °F 70% 29.61 in 10.0 mi SW 28.8 mph 43.7 mph N/A   Overcast
12:00 PM 39.2 °F 28.7 °F 30.2 °F 70% 29.61 in 8.0 mi WSW 23.0 mph 38.0 mph N/A   Overcast
1:00 PM 36 °F - 28 °F 63% 29.61 in 7 mi SW 25.3 mph - -   Overcast
1:00 PM 35.6 °F 24.0 °F 28.4 °F 75% 29.61 in 8.0 mi WSW 23.0 mph 38.0 mph N/A Snow Light Snow Grains
1:13 PM 35.6 °F 24.0 °F 28.4 °F 75% 29.60 in 10.0 mi SW 23.0 mph 32.2 mph N/A Rain , Snow Light Rain Showers
1:41 PM 35.6 °F 23.2 °F 28.4 °F 75% 29.62 in 8.0 mi SW 26.5 mph 38.0 mph N/A   Overcast
2:00 PM 35.6 °F 24.2 °F 28.4 °F 75% 29.63 in 8.0 mi WSW 21.9 mph 36.8 mph N/A   Overcast
2:39 PM 35.6 °F 24.0 °F 26.6 °F 70% 29.64 in 8.0 mi SW 23.0 mph 32.2 mph N/A Snow Light Snow Showers
3:00 PM 33.8 °F 21.6 °F 26.6 °F 75% 29.65 in 12.0 mi WSW 23.0 mph 41.4 mph N/A Snow Light Snow Showers
4:00 PM 33.8 °F 21.3 °F 26.6 °F 75% 29.65 in 15.0 mi SW 24.2 mph 34.5 mph N/A Snow Light Snow Showers
4:15 PM 33.8 °F 21.6 °F 26.6 °F 75% 29.67 in 15.0 mi SW 23.0 mph 35.7 mph N/A   Overcast
6:00 PM 33.8 °F 21.6 °F 26.6 °F 75% 29.70 in 15.0 mi SW 23.0 mph 34.5 mph N/A   Overcast
6:25 PM 33.8 °F 21.9 °F 26.6 °F 75% 29.70 in 10.0 mi SW 21.9 mph 29.9 mph N/A Snow Light Snow Showers
7:00 PM 33 °F - 26 °F 67% 29.72 in 15 mi WSW 21.9 mph - -   Overcast
7:00 PM 33.8 °F 21.3 °F 26.6 °F 75% 29.72 in 15.0 mi WSW 24.2 mph 29.9 mph N/A Snow Light Snow Showers
8:00 PM 33.8 °F 21.3 °F 26.6 °F 75% 29.73 in 12.0 mi WSW 24.2 mph 29.9 mph N/A Snow Light Snow Showers
9:00 PM 32.0 °F 20.5 °F 26.6 °F 80% 29.74 in 8.0 mi WSW 18.4 mph 26.5 mph N/A Snow Light Snow Showers
10:00 PM 32.0 °F 20.5 °F 26.6 °F 80% 29.75 in 12.0 mi WSW 18.4 mph 28.8 mph N/A Snow Light Snow Showers
11:00 PM 32.0 °F 19.8 °F 26.6 °F 80% 29.76 in 15.0 mi West 20.7 mph 28.8 mph N/A Snow Light Snow Showers
11:08 PM 32.0 °F 19.8 °F 26.6 °F 80% 29.77 in 15.0 mi WSW 20.7 mph 31.1 mph N/A   Overcast